Hourly Weather Klamka

Today, 27 July, Tuesday

Time Temperature Precipitation Wind Pressure Humidity
00:00 +19°C° 1.1 mm 2 mps 737 mmHg 85%
01:00 +19°C° 1.1 mm 2 mps 737 mmHg 89%
02:00 +20°C° 0.3 mm 1 mps 737 mmHg 89%
03:00 +20°C° 0.3 mm 1 mps 737 mmHg 90%
04:00 +20°C° 0.3 mm 1 mps 737 mmHg 90%
05:00 +21°C° 0.1 mm 1 mps 737 mmHg 87%
06:00 +22°C° 0.1 mm 1 mps 737 mmHg 84%
07:00 +24°C° 0.1 mm 2 mps 737 mmHg 80%
08:00 +25°C° 0 mm 2 mps 738 mmHg 74%
09:00 +27°C° 0 mm 2 mps 738 mmHg 67%
10:00 +28°C° 0 mm 3 mps 738 mmHg 60%
11:00 +29°C° 0 mm 3 mps 738 mmHg 57%
12:00 +29°C° 0 mm 3 mps 738 mmHg 54%
13:00 +30°C° 0 mm 3 mps 738 mmHg 51%
14:00 +30°C° 0 mm 3 mps 738 mmHg 50%
15:00 +30°C° 0 mm 3 mps 738 mmHg 49%
16:00 +30°C° 0 mm 3 mps 738 mmHg 48%
17:00 +29°C° 0 mm 3 mps 738 mmHg 54%
18:00 +27°C° 0 mm 2 mps 738 mmHg 60%
19:00 +25°C° 0 mm 1 mps 738 mmHg 67%
20:00 +24°C° 0 mm 1 mps 738 mmHg 67%
21:00 +23°C° 0 mm 1 mps 738 mmHg 68%
22:00 +22°C° 0 mm 1 mps 738 mmHg 69%
23:00 +22°C° 0 mm 1 mps 738 mmHg 70%

Tomorrow, 28 July, Wednesday

Time Temperature Precipitation Wind Pressure Humidity
00:00 +22°C° 0 mm 1 mps 738 mmHg 70%
01:00 +21°C° 0 mm 1 mps 738 mmHg 71%
02:00 +21°C° 0 mm 1 mps 738 mmHg 74%
03:00 +19°C° 0 mm 2 mps 737 mmHg 77%
04:00 +19°C° 0 mm 2 mps 737 mmHg 79%
05:00 +21°C° 0 mm 2 mps 737 mmHg 75%
06:00 +23°C° 0 mm 2 mps 737 mmHg 72%
07:00 +25°C° 0 mm 3 mps 737 mmHg 68%
08:00 +27°C° 0 mm 3 mps 737 mmHg 62%
09:00 +28°C° 0 mm 4 mps 737 mmHg 56%
10:00 +30°C° 0 mm 4 mps 737 mmHg 50%
11:00 +32°C° 0 mm 4 mps 736 mmHg 49%
12:00 +31°C° 0 mm 3 mps 736 mmHg 47%
13:00 +33°C° 0 mm 3 mps 736 mmHg 45%
14:00 +30°C° 0.8 mm 3 mps 736 mmHg 56%
15:00 +27°C° 0.8 mm 4 mps 735 mmHg 66%
16:00 +25°C° 0.8 mm 4 mps 735 mmHg 77%
17:00 +23°C° 0.3 mm 4 mps 736 mmHg 81%
18:00 +22°C° 0.3 mm 4 mps 736 mmHg 86%
19:00 +21°C° 0.3 mm 5 mps 736 mmHg 90%
20:00 +20°C° 0 mm 4 mps 737 mmHg 92%
21:00 +20°C° 0 mm 3 mps 737 mmHg 94%
22:00 +19°C° 0 mm 2 mps 737 mmHg 96%
23:00 +19°C° 0 mm 2 mps 737 mmHg 95%

Day after tomorrow, 29 July, Thursday

Time Temperature Precipitation Wind Pressure Humidity
00:00 +19°C° 0 mm 2 mps 737 mmHg 95%
01:00 +19°C° 0 mm 2 mps 738 mmHg 94%
02:00 +18°C° 0 mm 2 mps 738 mmHg 95%
03:00 +18°C° 0 mm 2 mps 738 mmHg 95%
04:00 +18°C° 0 mm 2 mps 738 mmHg 96%
05:00 +19°C° 0 mm 2 mps 738 mmHg 90%
06:00 +20°C° 0 mm 2 mps 738 mmHg 83%
07:00 +21°C° 0 mm 3 mps 738 mmHg 77%
08:00 +24°C° 0 mm 3 mps 738 mmHg 69%
09:00 +25°C° 0 mm 3 mps 738 mmHg 62%
10:00 +26°C° 0 mm 3 mps 738 mmHg 54%
11:00 +27°C° 0 mm 3 mps 738 mmHg 51%
12:00 +28°C° 0 mm 3 mps 738 mmHg 48%
13:00 +29°C° 0 mm 3 mps 738 mmHg 45%
14:00 +29°C° 0 mm 3 mps 738 mmHg 44%
15:00 +29°C° 0 mm 3 mps 738 mmHg 43%
16:00 +29°C° 0 mm 3 mps 737 mmHg 42%
17:00 +27°C° 0 mm 2 mps 737 mmHg 49%
18:00 +26°C° 0 mm 2 mps 737 mmHg 55%
19:00 +24°C° 0 mm 1 mps 737 mmHg 61%
20:00 +23°C° 0 mm 1 mps 737 mmHg 63%
21:00 +22°C° 0 mm 1 mps 737 mmHg 64%
22:00 +21°C° 0 mm 1 mps 737 mmHg 66%
23:00 +21°C° 0 mm 1 mps 737 mmHg 66%

30 July, Friday

Time Temperature Precipitation Wind Pressure Humidity
00:00 +21°C° 0 mm 1 mps 737 mmHg 66%
01:00 +20°C° 0 mm 1 mps 736 mmHg 65%
02:00 +20°C° 0.1 mm 1 mps 736 mmHg 68%
03:00 +20°C° 0.1 mm 1 mps 736 mmHg 71%
04:00 +20°C° 0.1 mm 1 mps 736 mmHg 74%
05:00 +21°C° 0.3 mm 1 mps 736 mmHg 74%
06:00 +22°C° 0.3 mm 1 mps 736 mmHg 74%
07:00 +23°C° 0.3 mm 1 mps 736 mmHg 74%
08:00 +25°C° 0 mm 1 mps 736 mmHg 67%
09:00 +26°C° 0 mm 2 mps 736 mmHg 60%
10:00 +28°C° 0 mm 2 mps 736 mmHg 53%
11:00 +29°C° 0 mm 2 mps 735 mmHg 52%
12:00 +29°C° 0 mm 3 mps 735 mmHg 52%
13:00 +29°C° 0 mm 3 mps 735 mmHg 51%
14:00 +29°C° 0 mm 3 mps 734 mmHg 52%
15:00 +28°C° 0 mm 3 mps 734 mmHg 54%
16:00 +28°C° 0 mm 4 mps 734 mmHg 56%
17:00 +26°C° 0.2 mm 3 mps 734 mmHg 63%
18:00 +25°C° 0.2 mm 2 mps 734 mmHg 69%
19:00 +23°C° 0.2 mm 2 mps 734 mmHg 76%
20:00 +21°C° 0.1 mm 2 mps 734 mmHg 78%
21:00 +20°C° 0.1 mm 2 mps 735 mmHg 80%
22:00 +19°C° 0.1 mm 2 mps 735 mmHg 82%
23:00 +19°C° 0 mm 2 mps 735 mmHg 79%

31 July, Saturday

Time Temperature Precipitation Wind Pressure Humidity
00:00 +18°C° 0 mm 2 mps 735 mmHg 77%
01:00 +17°C° 0 mm 2 mps 735 mmHg 75%
02:00 +17°C° 0 mm 2 mps 736 mmHg 75%
03:00 +16°C° 0 mm 1 mps 736 mmHg 75%
04:00 +15°C° 0 mm 1 mps 736 mmHg 75%
05:00 +18°C° 0 mm 1 mps 736 mmHg 72%
06:00 +18°C° 0 mm 2 mps 736 mmHg 68%
07:00 +20°C° 0 mm 2 mps 736 mmHg 64%
08:00 +21°C° 0 mm 2 mps 736 mmHg 58%
09:00 +24°C° 0 mm 3 mps 736 mmHg 52%
10:00 +25°C° 0 mm 3 mps 736 mmHg 47%
11:00 +26°C° 0 mm 3 mps 736 mmHg 45%
12:00 +27°C° 0 mm 3 mps 736 mmHg 43%
13:00 +28°C° 0 mm 4 mps 736 mmHg 41%
14:00 +28°C° 0 mm 3 mps 736 mmHg 40%
15:00 +28°C° 0 mm 3 mps 736 mmHg 40%
16:00 +28°C° 0 mm 3 mps 735 mmHg 40%
17:00 +27°C° 0 mm 2 mps 735 mmHg 46%
18:00 +25°C° 0 mm 1 mps 735 mmHg 52%
19:00 +23°C° 0 mm 1 mps 735 mmHg 58%
20:00 +22°C° 0 mm 1 mps 735 mmHg 59%
21:00 +22°C° 0 mm 1 mps 735 mmHg 61%
22:00 +20°C° 0 mm 2 mps 735 mmHg 62%
23:00 +19°C° 0 mm 2 mps 735 mmHg 63%

1 August, Sunday

Time Temperature Precipitation Wind Pressure Humidity
00:00 +19°C° 0 mm 2 mps 735 mmHg 65%
01:00 +18°C° 0 mm 2 mps 734 mmHg 66%
02:00 +18°C° 0 mm 2 mps 734 mmHg 69%
03:00 +18°C° 0 mm 2 mps 734 mmHg 72%
04:00 +18°C° 0 mm 2 mps 733 mmHg 75%
05:00 +19°C° 0 mm 3 mps 733 mmHg 76%
06:00 +20°C° 0 mm 3 mps 732 mmHg 77%
07:00 +21°C° 0 mm 4 mps 732 mmHg 78%
08:00 +23°C° 0 mm 4 mps 731 mmHg 70%
09:00 +27°C° 0 mm 5 mps 731 mmHg 61%
10:00 +29°C° 0 mm 5 mps 731 mmHg 53%
11:00 +30°C° 0 mm 5 mps 731 mmHg 50%
12:00 +32°C° 0 mm 5 mps 730 mmHg 47%
13:00 +33°C° 0 mm 5 mps 730 mmHg 44%
14:00 +32°C° 0.1 mm 5 mps 730 mmHg 48%
15:00 +30°C° 0.1 mm 5 mps 729 mmHg 51%
16:00 +29°C° 0.1 mm 5 mps 729 mmHg 55%
17:00 +26°C° 1.8 mm 5 mps 729 mmHg 66%
18:00 +22°C° 1.8 mm 5 mps 730 mmHg 77%
19:00 +19°C° 1.8 mm 5 mps 731 mmHg 88%
20:00 +18°C° 0.5 mm 4 mps 730 mmHg 90%
21:00 +17°C° 0.5 mm 3 mps 730 mmHg 91%
22:00 +17°C° 0.5 mm 3 mps 730 mmHg 93%
23:00 +16°C° 1.9 mm 3 mps 731 mmHg 93%
Show more